EW4483 Weather Reports


Display with metric or nautical units.
time (UTC)temp
F
wind
direction
speed
MPH
gust
MPH
rain 1hr
in
rain 24hr
in
rain mn
in
humidity
%
barometer
mb
20181113052804 68 132 0.0 2.0 0.00 0.02 0.00 75 1010.1
20181113052304 69 132 0.0 2.0 0.00 0.02 0.00 74 1010.1
20181113051804 69 132 1.0 2.0 0.00 0.02 0.00 73 1010.0
20181113051304 69 132 1.0 2.0 0.00 0.02 0.00 72 1009.9
20181113050804 69 124 1.0 2.0 0.00 0.02 0.00 69 1009.9
20181113050304 69 121 1.0 2.0 0.00 0.02 0.00 66 1009.9
20181113045804 69 121 1.0 3.0 0.00 0.02 0.00 65 1010.0
20181113045304 69 121 0.0 2.0 0.00 0.02 0.00 65 1010.0
20181113044804 69 123 1.0 2.0 0.00 0.02 0.00 65 1010.1
20181113044304 69 123 1.0 3.0 0.00 0.02 0.00 65 1010.1
20181113043804 69 116 0.0 1.0 0.00 0.02 0.00 66 1010.2
20181113043304 69 116 1.0 3.0 0.00 0.02 0.00 66 1010.2
20181113042804 69 113 1.0 3.0 0.00 0.02 0.00 66 1010.3
20181113042304 69 84 0.0 3.0 0.00 0.02 0.00 66 1010.3
20181113041804 69 90 2.0 6.0 0.00 0.02 0.00 66 1010.3
20181113041304 69 84 2.0 3.0 0.00 0.02 0.00 66 1010.5
20181113040804 68 74 1.0 3.0 0.00 0.02 0.00 67 1010.4
20181113040304 68 88 3.0 8.0 0.00 0.02 0.00 66 1010.4
20181113035804 68 90 4.0 7.0 0.00 0.02 0.00 66 1010.4
20181113035304 69 80 1.0 6.0 0.00 0.02 0.00 66 1010.5
20181113034804 69 69 3.0 7.0 0.00 0.02 0.00 66 1010.6
20181113034304 69 99 2.0 5.0 0.00 0.02 0.00 66 1010.7
20181113033804 68 62 2.0 3.0 0.00 0.02 0.00 66 1010.8
20181113033304 68 73 3.0 7.0 0.00 0.02 0.00 66 1010.9
20181113032804 69 74 3.0 8.0 0.00 0.02 0.00 66 1010.8
20181113032304 68 65 1.0 3.0 0.00 0.02 0.00 69 1010.9
20181113031804 68 44 1.0 3.0 0.00 0.02 0.00 69 1010.8
20181113031304 68 67 1.0 3.0 0.00 0.02 0.00 69 1011.0
20181113030804 68 70 3.0 7.0 0.00 0.02 0.00 69 1011.0
20181113030304 68 85 3.0 6.0 0.00 0.02 0.00 69 1011.0
20181113025804 68 81 3.0 5.0 0.00 0.02 0.00 70 1011.2
20181113025304 67 38 2.0 3.0 0.00 0.02 0.00 71 1011.2
20181113024804 67 350 2.0 3.0 0.00 0.02 0.00 71 1011.2
20181113024305 67 4 2.0 3.0 0.00 0.02 0.00 71 1011.2
20181113023804 67 356 2.0 3.0 0.00 0.02 0.00 71 1011.1
20181113023304 67 28 2.0 3.0 0.00 0.02 0.00 72 1011.2
20181113022804 66 11 2.0 5.0 0.00 0.02 0.00 72 1011.5
20181113022304 66 11 2.0 3.0 0.00 0.02 0.00 72 1011.7
20181113021804 66 2 2.0 5.0 0.00 0.02 0.00 72 1011.6
20181113021304 66 19 3.0 7.0 0.00 0.02 0.00 72 1011.7
20181113020804 66 14 3.0 6.0 0.00 0.02 0.00 73 1011.8
20181113020304 65 11 3.0 7.0 0.00 0.02 0.00 72 1011.7
20181113015804 65 7 2.0 5.0 0.00 0.02 0.00 72 1011.9
20181113015304 65 17 4.0 8.0 0.00 0.02 0.00 71 1012.1
20181113014804 65 10 3.0 9.0 0.00 0.02 0.00 71 1012.2
20181113014304 66 359 3.0 8.0 0.00 0.02 0.00 72 1012.3
20181113013804 66 17 3.0 5.0 0.00 0.02 0.00 72 1012.3
20181113013304 65 58 2.0 5.0 0.00 0.02 0.00 73 1012.2
20181113012804 65 57 3.0 6.0 0.00 0.02 0.00 73 1012.2
20181113012304 65 56 2.0 5.0 0.00 0.02 0.00 72 1012.3
20181113011804 65 13 2.0 5.0 0.00 0.02 0.00 73 1012.5
20181113011304 64 358 3.0 5.0 0.00 0.02 0.00 73 1012.7
20181113010804 64 1 3.0 7.0 0.00 0.02 0.00 74 1012.7
20181113010304 64 356 2.0 8.0 0.00 0.02 0.00 73 1012.6
20181113005804 64 346 4.0 6.0 0.00 0.02 0.00 73 1012.6
20181113005303 64 354 3.0 5.0 0.00 0.02 0.00 74 1012.6
20181113004806 64 15 3.0 8.0 0.00 0.02 0.00 73 1012.6
20181113004304 64 10 3.0 5.0 0.00 0.02 0.00 73 1012.6
20181113003805 63 6 3.0 5.0 0.00 0.02 0.00 73 1012.5
20181113003304 63 12 3.0 8.0 0.00 0.02 0.00 73 1012.5
20181113002804 63 27 4.0 9.0 0.00 0.02 0.00 73 1012.5
20181113002305 63 21 3.0 5.0 0.00 0.02 0.00 73 1012.4
20181113001804 63 15 3.0 7.0 0.00 0.02 0.00 73 1012.4
20181113001304 63 11 3.0 6.0 0.00 0.02 0.00 74 1012.5
20181113000805 62 4 3.0 9.0 0.00 0.02 0.00 74 1012.5
20181113000304 62 9 5.0 8.0 0.00 0.02 0.00 74 1012.4
20181112235804 62 10 4.0 7.0 0.00 0.02 0.00 75 1012.3
20181112235305 62 5 3.0 7.0 0.00 0.02 0.00 74 1012.4
20181112234804 62 13 4.0 7.0 0.00 0.02 0.00 74 1012.5
20181112234305 61 5 3.0 8.0 0.00 0.02 0.00 74 1012.4
20181112233803 61 8 3.0 7.0 0.00 0.02 0.00 75 1012.4
20181112233304 61 14 5.0 8.0 0.00 0.02 0.00 74 1012.4
20181112232804 61 17 3.0 7.0 0.00 0.02 0.00 74 1012.5
20181112232304 61 8 2.0 7.0 0.00 0.02 0.00 76 1012.5
20181112231804 61 8 3.0 7.0 0.00 0.02 0.00 76 1012.7
20181112231304 61 13 3.0 7.0 0.00 0.02 0.00 76 1012.6
20181112230804 61 17 4.0 7.0 0.00 0.02 0.00 76 1012.5
20181112230305 60 22 2.0 5.0 0.00 0.02 0.00 77 1012.4
20181112225804 60 357 3.0 5.0 0.00 0.02 0.00 78 1012.5
20181112225304 60 354 3.0 5.0 0.00 0.02 0.00 78 1012.5
20181112224803 60 356 3.0 6.0 0.00 0.02 0.00 78 1012.4
20181112224304 60 4 2.0 5.0 0.00 0.02 0.00 80 1012.3
20181112223804 59 359 2.0 6.0 0.00 0.02 0.00 80 1012.3
20181112223304 59 354 3.0 6.0 0.00 0.02 0.00 81 1012.4
20181112222804 59 349 3.0 5.0 0.00 0.02 0.00 82 1012.3
20181112222304 59 355 3.0 5.0 0.00 0.02 0.00 82 1012.1
20181112221804 59 355 2.0 3.0 0.00 0.02 0.00 83 1012.0
20181112221304 58 355 2.0 3.0 0.00 0.02 0.00 83 1011.8
20181112220804 58 356 1.0 3.0 0.00 0.02 0.00 83 1011.8
20181112220304 58 355 2.0 3.0 0.00 0.02 0.00 83 1011.8
20181112215804 58 354 2.0 3.0 0.00 0.02 0.00 83 1011.8
20181112215305 58 355 2.0 3.0 0.00 0.02 0.00 83 1011.7
20181112214804 58 355 1.0 3.0 0.00 0.02 0.00 83 1011.5
20181112214304 58 356 2.0 3.0 0.00 0.02 0.00 82 1011.5
20181112213804 58 355 2.0 3.0 0.00 0.02 0.00 82 1011.4
20181112213304 58 355 1.0 3.0 0.00 0.02 0.00 82 1011.3
20181112212804 58 355 1.0 2.0 0.00 0.02 0.00 82 1011.2
20181112212304 58 355 2.0 3.0 0.00 0.02 0.00 82 1011.2
20181112211804 58 355 2.0 3.0 0.00 0.02 0.00 82 1011.0
20181112211305 58 354 2.0 3.0 0.00 0.02 0.00 82 1011.0
20181112210804 58 355 2.0 3.0 0.00 0.02 0.00 82 1011.0
20181112210304 59 355 2.0 3.0 0.00 0.02 0.00 81 1011.0
20181112205804 59 353 2.0 5.0 0.00 0.02 0.00 81 1010.9
20181112205304 59 351 2.0 3.0 0.00 0.02 0.00 80 1011.1
20181112204804 59 351 2.0 5.0 0.00 0.02 0.00 80 1010.9
20181112204304 59 348 2.0 3.0 0.00 0.02 0.00 80 1010.8
20181112203804 59 346 2.0 3.0 0.00 0.02 0.00 80 1010.8
20181112203304 59 344 1.0 3.0 0.00 0.02 0.00 81 1010.8
20181112202804 59 344 2.0 3.0 0.00 0.02 0.00 81 1010.9
20181112202305 59 344 2.0 3.0 0.00 0.02 0.00 80 1010.6
20181112201803 59 342 1.0 2.0 0.00 0.02 0.00 80 1010.5
20181112201304 59 312 1.0 3.0 0.00 0.02 0.00 80 1010.6
20181112200804 60 341 2.0 3.0 0.00 0.02 0.00 80 1010.7
20181112200304 60 330 1.0 3.0 0.00 0.02 0.00 80 1010.7
20181112195804 60 330 1.0 2.0 0.00 0.02 0.00 79 1010.6
20181112195304 60 330 1.0 2.0 0.00 0.02 0.00 79 1010.4
20181112194804 60 330 1.0 2.0 0.00 0.02 0.00 79 1010.6
20181112194304 60 330 1.0 2.0 0.00 0.02 0.00 79 1010.5
20181112193804 60 330 1.0 2.0 0.00 0.02 0.00 78 1010.4
20181112193304 60 330 1.0 2.0 0.00 0.02 0.00 78 1010.2
20181112192803 60 330 1.0 2.0 0.00 0.02 0.00 78 1010.3
20181112192304 60 281 1.0 2.0 0.00 0.02 0.00 78 1010.3
20181112191804 60 281 2.0 3.0 0.00 0.02 0.00 78 1010.4
20181112191304 60 281 3.0 3.0 0.00 0.02 0.00 78 1010.5
20181112190804 60 287 2.0 3.0 0.00 0.02 0.00 77 1010.4
20181112190307 60 295 1.0 2.0 0.00 0.02 0.00 77 1010.3
20181112185804 60 295 3.0 5.0 0.00 0.02 0.00 76 1010.2
20181112185304 60 309 4.0 8.0 0.00 0.02 0.00 76 1010.2
20181112184804 61 295 6.0 10.0 0.00 0.02 0.00 75 1010.1
20181112184304 61 303 6.0 9.0 0.00 0.02 0.00 75 1010.3
20181112183804 61 309 4.0 6.0 0.00 0.02 0.00 75 1010.4
20181112183304 61 304 3.0 7.0 0.00 0.02 0.00 75 1010.3
20181112182804 61 297 3.0 6.0 0.00 0.02 0.00 75 1010.2
20181112182304 61 292 3.0 7.0 0.00 0.02 0.00 74 1010.3
20181112181804 61 294 3.0 7.0 0.00 0.02 0.00 75 1010.3
20181112181304 61 282 4.0 7.0 0.00 0.02 0.00 74 1010.3
20181112180804 61 265 3.0 3.0 0.00 0.02 0.00 74 1010.1
20181112180304 61 267 2.0 3.0 0.00 0.02 0.00 74 1010.1
20181112175805 61 285 2.0 3.0 0.00 0.02 0.00 73 1009.8
20181112175304 61 305 3.0 5.0 0.00 0.02 0.00 73 1009.8
20181112174804 61 299 3.0 5.0 0.00 0.02 0.00 73 1009.8
20181112174304 61 299 3.0 6.0 0.00 0.02 0.00 74 1009.9
20181112173804 61 298 3.0 3.0 0.00 0.02 0.00 73 1009.9
20181112173305 61 302 3.0 6.0 0.00 0.02 0.00 73 1009.9
20181112172805 61 294 4.0 7.0 0.00 0.02 0.00 73 1009.9
20181112172304 61 282 3.0 5.0 0.00 0.02 0.00 74 1010.0
20181112171805 62 287 3.0 5.0 0.00 0.02 0.00 74 1010.0
20181112171304 62 312 3.0 5.0 0.00 0.02 0.00 73 1010.1
20181112170805 62 308 2.0 5.0 0.00 0.02 0.00 73 1010.2
20181112170304 61 308 4.0 7.0 0.00 0.02 0.00 74 1010.0
20181112165805 61 289 3.0 7.0 0.00 0.02 0.00 74 1010.2
20181112165305 61 274 4.0 7.0 0.00 0.02 0.00 75 1010.3
20181112164804 61 285 3.0 7.0 0.00 0.02 0.00 75 1010.2
20181112164304 61 287 5.0 8.0 0.00 0.02 0.00 75 1010.3
20181112163804 61 290 3.0 6.0 0.00 0.02 0.00 76 1010.3
20181112163304 61 283 4.0 6.0 0.00 0.02 0.00 75 1010.3
20181112162805 61 275 4.0 8.0 0.00 0.02 0.00 76 1010.1
20181112162305 61 281 5.0 7.0 0.00 0.02 0.00 76 1010.5
20181112161804 61 266 5.0 7.0 0.00 0.02 0.00 76 1010.5
20181112161304 61 278 3.0 6.0 0.00 0.02 0.00 76 1010.5
20181112160804 62 274 5.0 16.0 0.00 0.02 0.00 75 1010.4
20181112160304 62 279 5.0 9.0 0.00 0.02 0.00 75 1010.3
20181112155804 61 269 5.0 8.0 0.00 0.02 0.00 76 1010.4
20181112155304 61 276 5.0 8.0 0.00 0.02 0.00 76 1010.4
20181112154805 61 282 6.0 8.0 0.00 0.02 0.00 76 1010.4
20181112154304 61 280 5.0 7.0 0.00 0.02 0.00 77 1010.4
20181112153805 61 268 5.0 9.0 0.00 0.02 0.00 76 1010.4
20181112153304 61 262 5.0 8.0 0.00 0.02 0.00 76 1010.4
20181112152804 61 275 5.0 9.0 0.00 0.02 0.00 76 1010.5
20181112152304 61 266 5.0 9.0 0.01 0.02 0.00 77 1010.5
20181112151804 61 270 4.0 8.0 0.01 0.02 0.00 77 1010.6
20181112151303 61 262 5.0 7.0 0.01 0.02 0.00 76 1010.8
20181112150803 61 258 5.0 9.0 0.01 0.02 0.00 77 1010.6
20181112150304 61 257 5.0 8.0 0.01 0.02 0.00 77 1010.7
20181112145803 61 265 4.0 9.0 0.02 0.02 0.02 77 1010.7
20181112145304 61 261 4.0 8.0 0.02 0.02 0.02 77 1010.7
20181112144804 61 258 6.0 9.0 0.02 0.02 0.02 77 1010.9
20181112144304 61 260 5.0 9.0 0.02 0.02 0.02 78 1011.0
20181112143804 61 262 3.0 6.0 0.02 0.02 0.02 78 1010.9
20181112143305 61 271 3.0 6.0 0.02 0.02 0.02 77 1011.0
20181112142804 61 275 3.0 6.0 0.02 0.02 0.02 76 1011.0
20181112142304 61 264 3.0 3.0 0.01 0.01 0.01 75 1010.9
20181112141804 61 273 3.0 3.0 0.01 0.01 0.01 74 1010.9
20181112141304 61 273 2.0 3.0 0.01 0.01 0.01 73 1011.0
20181112140804 61 269 3.0 6.0 0.01 0.01 0.01 73 1011.2
20181112140304 62 274 4.0 7.0 0.01 0.01 0.01 72 1011.3
20181112135804 62 279 4.0 8.0 0.00 0.00 0.00 71 1011.4
20181112135304 62 278 5.0 7.0 0.00 0.00 0.00 70 1011.6
20181112134805 63 284 5.0 9.0 0.00 0.00 0.00 69 1011.6
20181112134305 63 263 5.0 9.0 0.00 0.00 0.00 67 1011.7
20181112133804 64 271 6.0 10.0 0.00 0.00 0.00 65 1011.8
20181112133304 64 267 7.0 10.0 0.00 0.00 0.00 63 1011.7
20181112132804 64 261 6.0 12.0 0.00 0.00 0.00 62 1011.8
20181112132304 64 267 7.0 12.0 0.00 0.00 0.00 62 1011.7
20181112131804 64 265 6.0 9.0 0.00 0.00 0.00 61 1011.7
20181112131304 65 287 6.0 9.0 0.00 0.00 0.00 61 1011.7
20181112130804 65 271 6.0 9.0 0.00 0.00 0.00 61 1011.6
20181112130304 65 268 5.0 8.0 0.00 0.00 0.00 61 1011.6
20181112125804 65 271 5.0 9.0 0.00 0.00 0.00 61 1011.5
20181112125304 65 275 6.0 10.0 0.00 0.00 0.00 61 1011.6
20181112124803 65 279 6.0 9.0 0.00 0.00 0.00 61 1011.7
20181112124304 65 275 5.0 8.0 0.00 0.00 0.00 62 1011.6
20181112123804 65 274 5.0 7.0 0.00 0.00 0.00 62 1011.6
20181112123305 65 273 5.0 7.0 0.00 0.00 0.00 62 1011.7
20181112122804 65 265 6.0 12.0 0.00 0.00 0.00 61 1011.9
20181112122304 65 270 7.0 12.0 0.00 0.00 0.00 61 1012.0
20181112121805 65 262 7.0 12.0 0.00 0.00 0.00 62 1011.9
20181112120804 65 273 9.0 12.0 0.00 0.00 0.00 62 1011.8
20181112120304 65 267 7.0 9.0 0.00 0.00 0.00 61 1011.7
20181112115805 65 265 6.0 10.0 0.00 0.00 0.00 61 1011.6
20181112115304 65 267 6.0 9.0 0.00 0.00 0.00 60 1011.8
20181112114804 65 258 6.0 9.0 0.00 0.00 0.00 60 1011.7
20181112114304 65 263 4.0 8.0 0.00 0.00 0.00 60 1011.6
20181112113804 65 271 5.0 7.0 0.00 0.00 0.00 60 1011.6
20181112113304 65 284 5.0 8.0 0.00 0.00 0.00 60 1011.5
20181112112804 65 284 5.0 7.0 0.00 0.00 0.00 61 1011.4
20181112112305 65 277 5.0 6.0 0.00 0.00 0.00 60 1011.5
20181112111804 65 296 3.0 7.0 0.00 0.00 0.00 60 1011.4
20181112111304 65 286 3.0 8.0 0.00 0.00 0.00 60 1011.5
20181112110804 65 284 6.0 9.0 0.00 0.00 0.00 60 1011.6
20181112110304 65 295 5.0 9.0 0.00 0.00 0.00 59 1011.6
20181112105804 65 301 5.0 8.0 0.00 0.00 0.00 60 1011.6
20181112105305 65 299 5.0 9.0 0.00 0.00 0.00 59 1011.7
20181112104804 65 286 7.0 10.0 0.00 0.00 0.00 59 1011.7
20181112104304 65 310 5.0 8.0 0.00 0.00 0.00 60 1011.7
20181112103804 66 283 4.0 9.0 0.00 0.00 0.00 60 1011.9
20181112103304 66 284 6.0 10.0 0.00 0.00 0.00 59 1011.9
20181112102805 66 291 7.0 14.0 0.00 0.00 0.00 59 1011.9
20181112102305 66 290 7.0 12.0 0.00 0.00 0.00 60 1012.0
20181112101804 66 284 7.0 12.0 0.00 0.00 0.00 61 1012.0
20181112101304 66 287 7.0 12.0 0.00 0.00 0.00 61 1011.9
20181112100804 66 282 8.0 12.0 0.00 0.00 0.00 62 1011.9
20181112100305 66 277 9.0 13.0 0.00 0.00 0.00 61 1012.1
20181112095803 66 270 7.0 10.0 0.00 0.00 0.00 62 1012.1
20181112095305 66 271 7.0 13.0 0.00 0.00 0.00 62 1012.1
20181112094804 66 274 7.0 12.0 0.00 0.00 0.00 61 1012.0
20181112094304 66 279 6.0 10.0 0.00 0.00 0.00 61 1012.0
20181112093804 66 273 5.0 9.0 0.00 0.00 0.00 61 1012.1
20181112093304 66 274 7.0 12.0 0.00 0.00 0.00 61 1012.1
20181112092807 66 276 7.0 12.0 0.00 0.00 0.00 62 1012.1
20181112092305 66 281 5.0 9.0 0.00 0.00 0.00 63 1012.1
20181112091808 66 281 6.0 9.0 0.00 0.00 0.00 63 1012.0
20181112091303 66 273 4.0 7.0 0.00 0.00 0.00 64 1012.0
20181112090804 66 286 5.0 8.0 0.00 0.00 0.00 64 1012.0
20181112090304 66 282 6.0 10.0 0.00 0.00 0.00 64 1011.9
20181112085804 66 296 5.0 9.0 0.00 0.00 0.00 65 1011.8
20181112085305 66 290 6.0 9.0 0.00 0.00 0.00 65 1011.8
20181112084804 66 268 5.0 9.0 0.00 0.00 0.00 65 1011.7
20181112084304 66 275 6.0 9.0 0.00 0.00 0.00 65 1011.8
20181112083805 66 267 6.0 10.0 0.00 0.00 0.00 64 1011.8
20181112083304 66 282 5.0 9.0 0.00 0.00 0.00 64 1011.9
20181112082804 66 271 5.0 10.0 0.00 0.00 0.00 64 1011.9
20181112082305 67 276 6.0 9.0 0.00 0.00 0.00 64 1011.9
20181112081804 67 271 6.0 12.0 0.00 0.00 0.00 64 1011.9
20181112081304 67 271 6.0 12.0 0.00 0.00 0.00 64 1012.1
20181112080804 67 264 6.0 12.0 0.00 0.00 0.00 63 1012.0
20181112080304 67 268 7.0 12.0 0.00 0.00 0.00 63 1012.0
20181112075804 67 254 9.0 14.0 0.00 0.00 0.00 63 1011.9
20181112075305 67 266 7.0 12.0 0.00 0.00 0.00 63 1011.8
20181112074804 67 253 6.0 10.0 0.00 0.00 0.00 62 1011.9
20181112074306 67 267 7.0 13.0 0.00 0.00 0.00 62 1012.0
20181112073804 67 272 7.0 12.0 0.00 0.00 0.00 62 1012.1
20181112073304 68 276 8.0 13.0 0.00 0.00 0.00 62 1012.1
20181112072805 68 259 6.0 10.0 0.00 0.00 0.00 62 1012.1
20181112072305 68 279 7.0 12.0 0.00 0.00 0.00 61 1012.1
20181112071804 68 277 7.0 12.0 0.00 0.00 0.00 61 1012.1
20181112071304 68 276 7.0 13.0 0.00 0.00 0.00 61 1012.1
20181112070804 68 276 10.0 16.0 0.00 0.00 0.00 60 1012.2
20181112070304 68 256 9.0 15.0 0.00 0.00 0.00 60 1012.2
20181112065804 68 254 10.0 15.0 0.00 0.00 0.00 59 1012.2
20181112065305 69 267 9.0 13.0 0.00 0.00 0.00 59 1012.1
20181112064804 69 281 8.0 14.0 0.00 0.00 0.00 59 1012.0
20181112064307 69 261 8.0 13.0 0.00 0.00 0.00 57 1012.0
20181112063804 69 265 8.0 14.0 0.00 0.00 0.00 57 1012.0
20181112063304 70 253 7.0 12.0 0.00 0.00 0.00 59 1012.0
20181112062804 70 267 9.0 14.0 0.00 0.00 0.00 59 1012.1
20181112062304 70 255 7.0 14.0 0.00 0.00 0.00 61 1012.1
20181112061804 70 233 7.0 12.0 0.00 0.00 0.00 61 1012.1
20181112061304 70 238 6.0 12.0 0.00 0.00 0.00 64 1012.0
20181112060803 70 244 6.0 12.0 0.00 0.00 0.00 64 1011.9
20181112060304 70 249 6.0 12.0 0.00 0.00 0.00 64 1011.9
20181112055804 70 232 7.0 13.0 0.00 0.00 0.00 63 1011.9
20181112055304 70 238 9.0 12.0 0.00 0.00 0.00 61 1012.0
20181112054804 70 235 10.0 14.0 0.00 0.00 0.00 61 1012.0
20181112054305 70 232 6.0 12.0 0.00 0.00 0.00 62 1012.1
20181112053803 70 242 7.0 12.0 0.00 0.00 0.00 61 1012.0
20181112053305 70 237 7.0 12.0 0.00 0.00 0.00 62 1012.0